Location: Newark
(45.2500°N, 7.5833°E)
Time: 19:33:46
(UTC+00:00)

Explorer 7 - Visible Passes

Search period start: 27 January 2020 00:00
Search period end: 06 February 2020 00:00
Orbit: 485 x 679 km, 50.3° (Epoch: 27 January)

Date Brightness Start Highest point End Pass type
(mag) Time Alt. Az. Time Alt. Az. Time Alt. Az.
01 Feb 8.6 18:12:11 10° S 18:14:19 17° SE 18:14:19 17° SE visible
02 Feb 7.9 18:16:10 10° SSW 18:19:32 27° SE 18:19:32 27° SE visible
03 Feb 7.2 18:20:34 10° SW 18:24:21 41° SE 18:24:40 41° SE visible
03 Feb 10.0 20:00:58 10° W 20:01:00 10° W 20:01:00 10° W visible
04 Feb 6.6 18:25:14 10° SW 18:29:13 64° SSE 18:29:43 57° ESE visible
05 Feb 6.6 18:30:05 10° WSW 18:34:07 88° NNW 18:34:42 63° ENE visible
